{"data":{"norad_id":63812,"intl_designator":"2025-092J","name":"STARLINK-34101","alt_names":[],"object_type":"PAYLOAD","status":"ACTIVE","operator":null,"country":"US","launch_date":"2025-05-04","launch_site_code":"AFETR","launch_vehicle":null,"mission":null,"orbit_class":"UNKNOWN","rcs_meters":null,"size_class":null,"mass_kg":null,"dimensions":null,"purposes":["comms"],"wikipedia_slug":null,"has_3d_model":false,"image_url":null,"decayed_at":null,"tle_current":{"epoch":"2026-05-25T03:43:58.878048Z","epoch_age_seconds":72198,"freshness":"FRESH","line1":"1 63812U 25092J   26145.15554257  .00018795  00000+0  69046-3 0  9997","line2":"2 63812  42.9978 100.3094 0000636 248.6751 111.4033 15.27595165 60258","mean_motion":15.27595165,"eccentricity":6.36e-5,"inclination_deg":42.9978,"raan_deg":100.3094,"arg_perigee_deg":248.6751,"mean_anomaly_deg":111.4033,"bstar":0.00069046,"rev_number":6025,"period_min":94.265812892907,"perigee_km":482.56731840205,"apogee_km":483.44005549743,"semimajor_km":6861.1406869497,"source":"CELESTRAK","updated_at":"2026-05-25T13:38:20.140789Z"}}}